Lumberton, NC

12:40 AM EDT on October 19, 2017 (GMT -0400)
Lumberton Municipal

Weather History for KLBT - July, 2014

Change the Weather History Date:

Sunday, July 27, 2014

  Actual Average Record
Temperature  
Mean Temperature 85 °F 81 °F  
Max Temperature 93 °F 90 °F 103 °F (2005)
Min Temperature 76 °F 72 °F 67 °F (2017)
Degree Days  
Heating Degree Days 0 0  
Month to date heating degree days 0 0  
Since 1 June heating degree days 0 0  
Since 1 July heating degree days 0 0  
Cooling Degree Days 20 16  
Month to date cooling degree days 425 432  
Year to date cooling degree days 1171 1070  
Since 1 June cooling degree days 883 820  
Growing Degree Days 33 (Base 50)    
Moisture  
Dew Point 74 °F    
Average Humidity 76    
Maximum Humidity 100    
Minimum Humidity 52    
Precipitation  
Precipitation 0.02 in 0.20 in 3.40 in (2010)
Month to date precipitation 3.87 4.70  
Year to date precipitation 28.70 24.11  
Sea Level Pressure  
Sea Level Pressure 29.90 in    
Wind  
Wind Speed 7 mph (SSW)    
Max Wind Speed 16 mph    
Max Gust Speed 22 mph    
Visibility 8 miles    
Events      
T = Trace of Precipitation, MM = Missing Value Source: NWS Daily Summary

Daily Weather History Graph

Daily Weather History Graph

Search for Another Location

Airport or City:

Trip Planner

Search our weather history database for the weather conditions in past years. The results will help you decide how hot, cold, wet, or windy it might be!

Date:

Astronomy

Jul. 27, 2014 Rise Set
Actual Time 6:22 AM EDT 8:22 PM EDT
Civil Twilight 5:54 AM EDT 8:50 PM EDT
Nautical Twilight 5:20 AM EDT 9:24 PM EDT
Astronomical Twilight 4:44 AM EDT 10:00 PM EDT
Moon 7:03 AM EDT (7/27) 8:36 PM EDT (7/27)
Length of Visible Light 14h 55m
Length of Day
13h 59m
New Moon, 0% of the Moon is Illuminated
Jul 27
New Moon
Aug 3
First Quarter
Aug 10
Full
Aug 17
Last Quarter
Aug 25
New

Hourly Weather History & Observations

Time (EDT) Temp. Heat Index Dew Point Humidity Pressure Visibility Wind Dir Wind Speed Gust Speed Precip Events Conditions
12:54 AM 78.1 °F - 75.0 °F 90% 29.95 in 7.0 mi South 5.8 mph - N/A   Clear
1:54 AM 78.1 °F - 75.9 °F 93% 29.94 in 7.0 mi SSW 5.8 mph - N/A   Clear
2:54 AM 78.1 °F - 75.9 °F 93% 29.92 in 5.0 mi SW 4.6 mph - N/A   Clear
3:54 AM 77.0 °F - 75.9 °F 96% 29.91 in 4.0 mi SSW 3.5 mph - N/A   Clear
4:54 AM 77.0 °F - 75.0 °F 94% 29.92 in 4.0 mi SSW 4.6 mph - N/A   Clear
5:54 AM 77.0 °F - 75.0 °F 94% 29.93 in 4.0 mi SW 3.5 mph - N/A   Clear
6:54 AM 75.9 °F - 75.0 °F 97% 29.92 in 3.0 mi SSW 4.6 mph - N/A   Clear
7:54 AM 78.1 °F - 75.9 °F 93% 29.94 in 4.0 mi SW 4.6 mph - N/A   Clear
8:54 AM 80.1 °F 84.5 °F 73.9 °F 81% 29.94 in 7.0 mi SSW 5.8 mph - N/A   Clear
9:54 AM 84.9 °F 91.4 °F 73.0 °F 67% 29.96 in 10.0 mi West 11.5 mph - N/A   Clear
10:54 AM 87.1 °F 93.6 °F 72.0 °F 61% 29.96 in 10.0 mi WNW 13.8 mph - N/A   Clear
11:54 AM 84.9 °F 92.1 °F 73.9 °F 69% 29.95 in 10.0 mi South 5.8 mph - 0.02 in   Partly Cloudy
12:54 PM 84.9 °F 93.3 °F 75.0 °F 72% 29.94 in 10.0 mi South 5.8 mph - 0.00 in   Mostly Cloudy
2:54 PM 91.0 °F 98.2 °F 72.0 °F 53% 29.91 in 10.0 mi SW 8.1 mph - N/A   Clear
3:54 PM 91.9 °F 98.4 °F 71.1 °F 50% 29.89 in 10.0 mi SW 8.1 mph - N/A   Clear
4:54 PM 91.9 °F 99.5 °F 72.0 °F 52% 29.87 in 10.0 mi SSW 8.1 mph - N/A   Clear
5:54 PM 91.0 °F 98.2 °F 72.0 °F 53% 29.85 in 10.0 mi SSW 9.2 mph - N/A   Clear
6:54 PM 89.1 °F 97.0 °F 73.0 °F 59% 29.84 in 10.0 mi SSW 5.8 mph - N/A   Clear
7:54 PM 86.0 °F 93.8 °F 73.9 °F 67% 29.84 in 10.0 mi SSW 5.8 mph - N/A   Clear
8:54 PM 84.9 °F 92.1 °F 73.9 °F 69% 29.84 in 10.0 mi SSW 5.8 mph - N/A   Clear
9:54 PM 84.0 °F 91.2 °F 73.9 °F 72% 29.86 in 10.0 mi SSW 6.9 mph - N/A   Clear
10:54 PM 84.0 °F 91.2 °F 73.9 °F 72% 29.82 in 10.0 mi SSW 11.5 mph 19.6 mph N/A   Clear
11:54 PM 84.0 °F 91.2 °F 73.9 °F 72% 29.82 in 10.0 mi SW 11.5 mph - N/A   Clear